Volver al catálogo

STARLINK-36458

ActivoComunicacionesVLEO
NORAD 67343·PAYLOAD·🇺🇸 United States

Lanzado Jan 9, 2026 desde Cape Canaveral Space Force Station

Loading…

Próximos Pases (próximas 24 horas)

TLE

ActualizadoSource: CelesTrak SupGP

Época: Sep 15, 2026, 02:57 UTC

1 67343C 26003K   26258.12340278 -.00027122  00000+0 -98260-3 0  2585
2 67343  42.9993 237.1077 0001303 267.4448 210.7939 15.27584497    14

Sigue STARLINK-36458 en tiempo real con AllMySat

Download on the App Store